Flag for Germany Weather past 2 weeks in Merseburg, Saxony-Anhalt, Germany

Now
32 °F

Clear.


Feels Like: 24 °F
Forecast: 32 / 48 °F
Wind: 10 mph from South

Location: Leipzig-Schkeuditz

Current Time: Mar 1, 2015 at 12:58:19 AM

Latest Report: Mar 1, 2015 at 12:20 AM


Visibility: 10 mi

Pressure: 29.92 "Hg

Humidity: 87%

Dew point: 28 °F

Location of MerseburgLocation

Historic Weather in Merseburg — Graph

°F

Merseburg temperature yesterday

Maximum temperature yesterday: 45 °F (at 1:50 PM)
Minimum temperature yesterday: 32 °F (at 6:50 AM)
Average temperature yesterday: 38 °F

Past Weeks' High & Low Weather Summary

 TemperatureHumidityPressure
High52 °F (Feb 20, 2:20 PM)100% (Feb 14, 7:50 AM)30.74 "Hg (Feb 14, 7:50 AM)
Low25 °F (Feb 15, 1:20 AM)37% (Feb 26, 3:20 PM)29.42 "Hg (Feb 21, 11:50 AM)
Average36 °F83%30.01 "Hg
* Reported Feb 13 11:20 PM — Feb 28 11:20 PM, Merseburg, Weather by CustomWeather, © 2015

Note: Actual official high and low records may vary slightly from our data, if they occured in-between our weather recording intervals... More about our weather records

Advertising

Merseburg weather history for previous 24 hours

 ConditionsComfort  
Time TempWeatherWind HumidityBarometerVisibility
11:20 PM
Sat, Feb 28
32 °FClear.10 mph80%29.95 "Hg10 mi
10:50 PM32 °FClear.9 mph80%29.98 "Hg10 mi
10:20 PM32 °FClear.9 mph80%29.98 "Hg10 mi
9:50 PM34 °FClear.9 mph81%29.98 "Hg10 mi
9:20 PM32 °FClear.9 mph80%30.01 "Hg10 mi
8:50 PM34 °FClear.9 mph81%30.01 "Hg10 mi
8:20 PM34 °FClear.7 mph75%30.01 "Hg10 mi
7:50 PM34 °FClear.7 mph75%30.04 "Hg10 mi
7:20 PM36 °FClear.7 mph70%30.04 "Hg10 mi
6:50 PM37 °FPassing clouds.6 mph65%30.04 "HgN/A
6:20 PM39 °FPassing clouds.6 mph61%30.04 "HgN/A
5:50 PM39 °FPassing clouds.6 mph65%30.04 "HgN/A
5:20 PM41 °FScattered clouds.7 mph61%30.04 "HgN/A
4:50 PM43 °FScattered clouds.9 mph57%30.07 "HgN/A
4:20 PM45 °FScattered clouds.12 mph53%30.07 "HgN/A
3:50 PM45 °FScattered clouds.10 mph53%30.07 "HgN/A
3:20 PM45 °FScattered clouds.10 mph49%30.07 "HgN/A
2:50 PM45 °FScattered clouds.12 mph49%30.07 "HgN/A
2:20 PM45 °FScattered clouds.9 mph53%30.07 "HgN/A
1:50 PM45 °FScattered clouds.9 mph49%30.09 "HgN/A
1:20 PM43 °FScattered clouds.10 mph57%30.09 "HgN/A
12:50 PM41 °FPartly sunny.12 mph61%30.12 "HgN/A
12:20 PM43 °FPartly sunny.10 mph57%30.12 "HgN/A
11:50 AM41 °FPartly sunny.8 mph61%30.12 "HgN/A
11:20 AM39 °FScattered clouds.6 mph65%30.12 "HgN/A
10:50 AM41 °FScattered clouds.6 mph66%30.12 "HgN/A
10:20 AM39 °FPassing clouds.7 mph70%30.12 "HgN/A
9:50 AM39 °FPassing clouds.9 mph75%30.15 "HgN/A
9:20 AM37 °FPassing clouds.8 mph81%30.12 "HgN/A
8:50 AM36 °FScattered clouds.8 mph87%30.12 "HgN/A
8:20 AM34 °FScattered clouds.7 mph93%30.12 "HgN/A
7:50 AM32 °FScattered clouds.8 mph93%30.12 "HgN/A
7:20 AM32 °FBroken clouds.7 mph93%30.12 "HgN/A
6:50 AM32 °FPassing clouds.8 mph93%30.12 "HgN/A
6:20 AM34 °FPartly cloudy.8 mph93%30.09 "HgN/A
5:50 AM36 °FPassing clouds.8 mph93%30.09 "HgN/A
5:20 AM36 °FPassing clouds.9 mph93%30.09 "HgN/A
4:50 AM36 °FPassing clouds.10 mph93%30.09 "HgN/A
4:20 AM36 °FLight rain. Passing clouds.9 mph100%30.07 "HgN/A
3:50 AM37 °FLight rain. Passing clouds.8 mph93%30.07 "HgN/A
3:20 AM37 °FLight rain. Passing clouds.9 mph93%30.07 "HgN/A
2:50 AM37 °FLight rain. Passing clouds.8 mph93%30.07 "HgN/A
2:20 AM37 °FPartly cloudy.9 mph93%30.07 "HgN/A
1:50 AM37 °FPassing clouds.9 mph100%30.07 "HgN/A
1:20 AM37 °FPassing clouds.9 mph93%30.07 "HgN/A
12:50 AM37 °FPassing clouds.8 mph93%30.07 "HgN/A
12:20 AM37 °FLight rain. Passing clouds.10 mph93%30.04 "HgN/A
Weather by CustomWeather, © 2015

See weather overviewHow to use our weather pages